Wind_Speed
15 14 6 3 7 7 10 8 3 6 5 5 7 2 3 7 7 4 14 15 20 20 18 16 13 12 11 12 12 12 12 12 13 14 15 15 15 16 16 16 16 16 16 16 15 16 15 15 15
13 10 4 6 6 2 8 7 6 9 8 6 10 3 3 5 5 7 18 17 21 20 19 16 14 12 11 11 12 13 13 14 15 15 16 15 16 16 16 16 15 15 14 14 13 13 13 12 13
11 6 7 6 4 3 6 5 8 8 8 7 5 1 3 4 3 16 12 22 23 20 18 17 15 13 12 12 12 13 14 15 15 15 16 15 15 15 15 15 14 13 12 11 10 10 10 10 9
6 4 6 8 1 6 6 5 3 10 7 3 2 6 5 6 9 10 19 23 22 19 17 17 15 14 13 12 13 14 14 14 14 15 15 15 15 14 14 13 12 11 10 9 8 8 7 7 7
5 6 7 8 4 1 3 3 1 7 4 3 2 4 4 6 11 19 21 22 22 20 17 17 16 15 13 13 12 13 13 13 13 13 14 14 14 13 12 11 10 9 8 6 6 6 5 4 5
8 5 7 10 6 1 3 2 4 8 5 3 4 4 8 9 15 18 19 20 20 20 17 17 17 15 13 12 12 12 12 12 12 12 12 12 12 12 11 9 9 7 6 4 3 4 4 3 4
12 7 4 5 2 6 1 4 10 10 3 2 2 9 8 12 15 18 19 19 20 19 17 17 16 16 14 13 12 11 12 12 12 11 11 11 11 10 9 8 7 6 4 3 1 1 2 3 4
9 7 6 6 3 3 2 9 7 10 2 2 4 2 9 15 17 17 19 19 19 19 17 16 16 15 14 13 12 11 11 11 11 11 11 10 9 8 7 6 6 5 5 3 2 2 2 4 5
7 10 9 5 5 4 4 9 9 5 5 7 6 1 7 19 19 18 20 19 19 19 18 17 16 15 14 13 14 12 11 11 10 10 9 9 7 6 6 6 6 5 5 4 4 4 5 6 6
12 11 8 3 2 6 4 6 14 9 8 10 8 6 14 19 20 22 22 22 21 20 20 18 18 17 16 13 13 12 12 11 10 10 10 8 8 8 9 8 7 7 6 6 7 8 9 9 7
16 14 4 6 5 6 6 5 8 13 11 11 12 12 18 19 21 21 20 20 21 20 19 19 19 18 16 14 13 12 11 10 11 11 10 9 8 7 7 6 6 7 8 5 9 9 8 9 8
15 18 8 5 4 8 6 3 6 12 10 2 7 17 22 23 23 22 20 19 19 19 19 19 19 20 18 15 14 13 12 12 10 11 11 10 9 8 7 7 8 8 7 9 8 9 11 11 11
17 18 10 12 10 11 11 9 8 11 10 7 7 19 22 23 22 20 19 19 19 20 20 20 19 20 20 20 14 14 14 13 11 12 11 10 9 9 8 9 8 9 9 8 9 10 11 12 13
13 21 15 13 15 13 13 9 6 7 11 9 12 18 21 23 24 22 22 22 21 20 20 19 20 19 19 18 17 15 14 12 12 11 11 11 10 10 8 8 8 9 10 9 10 10 11 12 13
6 11 14 19 20 17 12 14 10 11 9 11 13 15 19 22 24 26 24 24 24 22 20 20 19 19 20 20 20 18 14 13 11 11 12 11 11 11 11 9 9 9 9 11 11 11 12 14 13
11 10 14 17 17 15 11 16 16 11 10 12 12 14 18 22 28 26 25 24 24 23 25 22 20 19 20 21 20 18 15 13 12 11 12 13 13 14 13 11 10 10 10 11 11 11 12 13 14
8 13 12 15 9 14 12 18 17 7 11 18 16 16 18 21 25 27 28 27 27 30 28 27 24 22 21 21 21 20 18 17 13 12 12 15 16 16 16 12 11 16 14 12 11 11 12 11 11
9 9 8 11 7 10 18 17 19 11 10 14 20 21 22 23 27 30 29 28 27 29 31 31 29 27 25 23 23 21 18 17 16 16 14 17 15 17 16 13 17 15 12 9 8 11 9 11 11
8 10 12 9 5 11 14 15 16 19 16 17 19 22 25 28 29 27 27 28 27 29 31 33 33 32 30 28 25 22 20 21 18 20 18 15 12 11 14 13 13 11 6 6 7 7 9 9 11
9 12 13 10 7 7 14 19 20 18 19 21 24 25 26 28 31 29 28 27 31 32 32 32 34 34 35 31 28 21 21 18 18 18 17 14 12 12 12 10 8 7 7 7 8 8 6 7 7
11 13 13 12 12 13 17 19 20 18 27 22 18 21 24 28 31 33 31 29 26 29 34 33 33 33 34 33 28 30 21 27 23 20 16 16 13 13 13 11 10 9 7 7 9 8 5 4 5
12 7 9 12 11 10 2 13 13 13 16 18 22 19 21 24 28 32 31 30 29 27 25 30 31 32 34 35 29 34 32 21 16 16 21 19 16 16 13 13 11 9 9 9 7 5 4 2 3
10 3 8 11 13 15 16 11 14 16 13 16 21 23 17 17 19 26 32 33 28 24 25 26 29 31 31 33 32 33 24 17 19 19 22 20 15 14 14 12 10 9 7 7 5 4 3 2 1
14 13 16 16 14 15 19 18 17 13 15 13 18 18 19 15 15 16 21 26 25 23 23 23 27 29 29 31 35 34 27 27 27 25 21 19 17 16 13 10 9 8 6 5 3 2 2 2 1
7 12 12 14 13 14 14 15 10 10 11 11 12 15 12 8 11 12 16 21 21 22 22 22 25 29 30 31 33 32 32 34 26 24 22 20 17 14 14 12 10 8 5 3 2 2 2 2 1
14 10 10 20 16 16 10 8 6 2 8 12 23 23 22 22 21 17 15 14 18 21 21 22 27 30 31 31 31 32 33 28 27 24 23 20 17 15 16 14 12 8 6 3 1 1 2 3 4
7 8 13 12 18 18 18 24 18 6 12 17 21 25 27 29 29 24 19 16 19 22 23 26 29 31 32 30 32 32 30 30 28 24 21 21 21 19 19 16 12 9 6 3 1 1 4 7 7
10 10 8 9 16 22 15 17 10 13 12 14 19 25 29 31 32 27 19 15 17 25 23 21 27 34 36 36 34 31 30 29 26 23 25 24 22 21 21 18 14 9 5 3 1 4 6 8 6
9 3 6 7 9 14 17 15 9 11 16 19 25 32 34 34 33 30 21 10 12 21 20 24 23 31 35 31 30 29 30 28 27 28 29 26 24 23 20 16 12 9 7 4 3 3 6 6 7
8 9 10 5 9 9 10 15 9 8 19 30 35 36 35 34 33 31 24 21 18 19 20 26 28 23 25 25 26 27 30 32 31 29 26 25 24 22 19 15 12 8 6 6 4 3 5 7 9
Wind_Direction
340 349 348 274 235 242 118 96 94 131 144 55 145 175 17 25 3 33 142 146 155 153 158 153 147 139 134 138 142 138 133 129 124 119 117 117 116 111 108 109 107 104 102 98 91 87 85 83 77
337 351 304 274 260 172 106 107 129 69 86 109 130 179 105 58 43 112 144 148 151 153 153 156 147 139 133 137 139 139 136 131 126 124 123 122 118 113 110 108 105 101 99 97 91 85 84 81 76
338 5 282 298 293 84 97 91 93 104 114 139 136 284 3 48 79 141 157 147 151 150 150 156 149 141 138 141 141 139 135 131 129 128 125 124 120 115 112 109 105 102 100 98 93 87 82 75 67
322 271 238 259 245 73 352 28 73 132 123 110 105 108 98 83 130 156 147 149 150 152 154 156 151 144 141 145 143 141 136 134 133 131 130 129 123 120 116 114 112 107 105 103 96 87 80 73 66
309 259 260 240 206 48 342 3 111 113 114 86 31 104 91 94 121 139 146 151 152 154 160 159 153 149 149 151 146 142 137 138 138 137 135 133 129 124 124 123 121 120 113 107 100 85 71 62 54
245 272 233 227 175 304 270 203 185 145 112 86 200 162 118 131 133 144 151 154 158 158 159 165 160 155 153 154 153 149 145 144 143 142 141 139 137 137 137 137 134 133 130 121 96 81 72 51 36
272 251 258 293 276 221 1 189 205 173 134 121 175 168 121 151 152 153 155 160 165 164 162 169 167 162 161 162 161 159 152 151 150 150 151 150 150 150 148 150 150 154 151 149 132 61 20 21 13
276 265 204 218 207 79 74 193 198 191 144 187 173 138 167 168 157 155 160 165 169 169 170 169 169 170 170 171 170 169 166 163 161 161 164 163 162 164 163 167 176 182 182 190 210 259 296 316 328
256 253 226 182 245 62 127 197 175 181 189 187 183 118 142 161 164 160 167 170 174 176 177 175 172 176 170 178 182 179 179 177 175 175 176 178 173 198 197 215 210 214 217 229 251 266 281 294 310
238 241 224 57 21 349 34 228 175 192 200 198 169 135 150 162 170 171 175 179 181 181 182 182 179 181 177 181 192 187 192 192 189 190 191 187 208 205 202 224 224 235 244 254 264 275 284 301 312
228 251 201 203 281 313 357 164 208 212 217 232 209 177 165 170 177 183 185 186 185 186 185 188 185 185 184 186 187 189 194 195 201 200 199 201 217 227 225 235 252 246 261 271 283 288 296 275 277
244 238 276 267 268 290 314 335 219 230 245 106 218 184 175 178 187 188 189 188 187 190 191 190 193 197 189 190 194 196 194 200 200 208 210 210 218 230 219 231 237 246 250 254 273 272 273 281 282
236 249 244 250 266 279 294 278 303 265 241 239 206 181 186 181 188 190 192 192 189 191 194 194 196 203 204 199 200 198 203 207 206 214 216 212 220 226 230 238 238 238 250 264 276 280 281 280 287
243 247 251 253 259 261 276 275 297 244 194 193 175 182 190 194 190 190 195 196 196 192 196 194 200 208 209 211 211 207 210 213 213 214 216 220 219 227 225 241 247 249 254 262 273 282 278 283 287
222 239 232 246 249 255 272 261 242 247 194 202 201 194 197 202 200 201 199 200 200 198 194 198 201 208 210 212 215 212 210 207 211 214 222 217 221 229 228 237 246 257 263 269 278 287 294 300 296
227 238 248 230 233 238 232 252 223 201 213 223 210 212 208 208 211 210 208 206 206 203 204 204 203 210 212 212 214 213 211 207 212 215 225 227 235 242 247 250 255 260 269 272 275 282 283 292 283
198 249 214 255 196 254 218 247 250 174 227 237 236 224 220 217 217 216 214 212 210 212 212 212 214 210 216 216 214 213 218 214 215 219 229 242 248 256 263 259 260 276 281 271 268 275 286 293 295
253 217 224 255 176 228 244 243 254 211 232 229 232 235 230 225 223 219 216 214 213 220 216 220 221 220 220 221 220 218 216 219 221 230 236 254 263 260 280 257 272 287 280 265 271 279 279 291 297
290 270 270 269 277 270 264 258 251 250 246 243 241 235 235 230 230 226 222 216 213 220 223 221 224 227 227 224 220 214 212 220 221 231 243 261 266 265 265 267 273 276 251 254 280 283 294 304 301
258 264 261 273 273 268 261 258 253 245 247 249 246 245 238 237 234 228 223 219 216 221 229 225 226 228 231 228 225 213 214 217 222 227 238 242 257 260 260 254 256 258 262 266 269 279 285 299 314
247 261 274 271 285 270 262 264 256 251 245 247 247 249 246 238 235 234 226 224 220 220 225 230 228 228 232 224 220 222 212 223 225 231 240 245 245 252 257 247 237 264 261 276 281 291 287 287 313
270 278 260 265 263 269 121 278 281 242 237 231 239 232 232 235 237 240 233 228 226 224 222 226 230 229 230 226 216 223 226 215 211 210 231 238 241 250 247 245 252 257 247 259 264 259 275 293 306
286 314 277 279 271 274 255 256 265 256 231 252 238 240 241 239 246 243 231 226 228 223 221 224 225 227 226 225 211 222 211 208 212 212 225 231 234 236 235 236 238 226 219 226 239 243 243 338 4
295 282 273 267 254 254 253 251 267 260 226 243 249 231 247 251 253 253 232 224 225 222 218 216 222 221 215 215 212 217 210 203 219 220 219 218 213 221 220 222 209 202 208 207 219 252 295 295 307
264 271 274 263 243 251 256 258 280 289 287 269 282 287 283 272 254 251 231 222 220 218 215 210 208 208 206 207 208 212 213 218 219 219 212 217 208 198 214 203 192 197 206 220 262 316 345 16 30
290 292 282 295 287 288 297 250 250 25 285 358 16 1 352 342 330 311 271 244 230 218 213 207 207 208 203 203 206 208 215 216 215 212 218 209 198 195 202 195 195 193 206 221 260 58 80 4 355
352 284 322 285 274 271 268 267 257 260 48 29 15 7 359 350 339 318 292 261 238 231 213 207 214 208 204 200 205 208 212 208 211 210 208 200 197 203 194 193 190 195 202 203 321 343 7 357 354
342 328 299 234 271 270 267 269 273 63 40 21 9 0 352 349 346 336 312 279 248 238 225 209 213 209 209 204 205 201 200 202 208 206 202 199 199 190 191 189 184 194 201 236 324 353 341 345 345
329 317 314 303 279 286 282 272 72 67 30 9 356 347 343 341 341 339 333 303 258 254 245 221 213 213 213 215 213 199 192 197 197 196 196 196 192 190 189 189 187 195 219 253 277 293 312 333 325
46 47 3 313 297 304 294 270 161 71 8 354 336 331 329 330 333 335 326 314 294 274 264 238 220 201 206 198 194 190 194 193 190 191 193 194 192 190 190 189 193 188 227 244 272 301 293 309 314
Height
1515 1513 1512 1513 1507 1488 1492 1500 1499 1503 1503 1507 1509 1512 1511 1515 1514 1522 1528 1530 1535 1538 1537 1539 1541 1543 1544 1546 1548 1549 1550 1551 1553 1554 1556 1556 1557 1558 1558 1558 1559 1560 1560 1560 1560 1560 1560 1560 1560
1515 1514 1513 1508 1499 1505 1499 1493 1497 1500 1508 1510 1512 1514 1515 1515 1522 1525 1528 1530 1536 1538 1538 1540 1542 1544 1546 1548 1550 1551 1552 1553 1554 1556 1557 1558 1559 1559 1560 1560 1561 1562 1562 1562 1562 1562 1562 1562 1562
1515 1515 1513 1498 1491 1498 1499 1491 1494 1505 1509 1510 1512 1516 1518 1522 1525 1527 1528 1531 1536 1539 1541 1541 1543 1545 1547 1549 1551 1553 1555 1556 1556 1557 1559 1559 1560 1561 1561 1562 1563 1563 1564 1564 1564 1563 1563 1563 1563
1519 1517 1512 1501 1495 1494 1494 1495 1500 1504 1509 1511 1512 1514 1521 1524 1526 1528 1529 1533 1537 1541 1543 1542 1545 1547 1549 1551 1553 1555 1556 1557 1558 1559 1560 1561 1562 1563 1563 1563 1564 1565 1565 1565 1565 1565 1564 1564 1563
1519 1513 1502 1500 1496 1496 1498 1500 1503 1503 1509 1510 1513 1513 1520 1524 1525 1527 1531 1535 1539 1542 1544 1543 1546 1547 1549 1552 1554 1556 1557 1558 1559 1560 1561 1563 1563 1564 1565 1565 1565 1566 1566 1566 1566 1566 1565 1565 1564
1515 1512 1506 1503 1495 1497 1500 1504 1504 1505 1509 1514 1514 1515 1522 1525 1527 1530 1533 1537 1541 1543 1544 1543 1546 1548 1551 1553 1555 1557 1558 1559 1560 1562 1563 1564 1565 1565 1566 1566 1567 1567 1566 1566 1566 1565 1565 1565 1564
1513 1505 1501 1500 1500 1499 1500 1505 1504 1504 1509 1512 1514 1514 1522 1527 1528 1530 1534 1538 1541 1543 1545 1544 1547 1548 1551 1553 1555 1558 1559 1561 1561 1562 1564 1565 1565 1566 1567 1567 1567 1567 1567 1567 1566 1566 1565 1565 1564
1515 1508 1505 1500 1499 1500 1504 1505 1504 1507 1508 1514 1515 1513 1518 1526 1527 1531 1535 1538 1541 1543 1545 1546 1548 1549 1551 1553 1555 1557 1559 1561 1562 1563 1564 1565 1566 1567 1568 1568 1568 1568 1568 1567 1567 1566 1565 1565 1564
1517 1508 1501 1501 1502 1500 1503 1503 1508 1510 1511 1514 1516 1518 1520 1522 1525 1531 1534 1537 1540 1542 1544 1548 1550 1552 1554 1554 1554 1556 1559 1560 1562 1563 1564 1565 1567 1568 1568 1568 1568 1568 1568 1567 1567 1566 1565 1565 1564
1513 1503 1495 1500 1504 1501 1501 1503 1505 1509 1510 1511 1515 1518 1519 1521 1525 1529 1532 1535 1538 1540 1543 1547 1549 1550 1553 1555 1554 1556 1558 1560 1562 1563 1564 1565 1568 1568 1569 1568 1568 1568 1567 1567 1566 1566 1565 1564 1566
1509 1505 1495 1503 1506 1506 1504 1503 1505 1506 1503 1506 1509 1516 1518 1521 1525 1529 1531 1534 1536 1539 1542 1545 1546 1547 1552 1554 1555 1557 1560 1561 1561 1562 1563 1564 1567 1567 1568 1569 1568 1567 1567 1568 1567 1567 1566 1566 1564
1508 1504 1503 1503 1507 1506 1503 1505 1503 1503 1499 1505 1508 1512 1515 1519 1523 1526 1530 1532 1535 1538 1541 1543 1544 1544 1548 1552 1553 1556 1558 1560 1561 1561 1561 1563 1564 1565 1566 1568 1568 1567 1568 1566 1566 1566 1565 1562 1562
1507 1500 1503 1506 1506 1505 1504 1502 1502 1501 1502 1505 1507 1510 1514 1517 1521 1526 1529 1532 1534 1536 1538 1541 1542 1542 1545 1548 1551 1554 1555 1557 1559 1558 1559 1562 1563 1564 1565 1565 1565 1566 1566 1565 1565 1564 1563 1561 1560
1500 1501 1503 1503 1503 1503 1503 1498 1502 1495 1499 1504 1506 1508 1512 1515 1518 1523 1526 1528 1530 1532 1535 1538 1539 1541 1544 1546 1549 1551 1552 1555 1556 1557 1558 1558 1560 1561 1562 1562 1562 1562 1563 1563 1562 1562 1560 1559 1558
1505 1505 1501 1500 1500 1499 1501 1498 1497 1494 1499 1501 1504 1506 1509 1513 1517 1518 1521 1524 1526 1529 1533 1534 1537 1539 1541 1544 1546 1549 1551 1554 1555 1556 1555 1556 1557 1557 1558 1559 1559 1560 1561 1560 1560 1558 1558 1557 1556
1503 1502 1501 1491 1494 1497 1502 1498 1488 1492 1497 1497 1500 1503 1506 1509 1511 1516 1519 1521 1524 1527 1529 1532 1535 1537 1539 1541 1544 1547 1550 1551 1553 1554 1554 1554 1554 1555 1556 1557 1557 1558 1557 1557 1558 1557 1556 1555 1552
1500 1501 1496 1493 1490 1494 1496 1493 1485 1490 1494 1495 1495 1498 1502 1505 1507 1511 1513 1516 1519 1521 1525 1529 1531 1534 1536 1539 1541 1544 1546 1547 1550 1551 1551 1552 1553 1553 1554 1555 1556 1553 1553 1553 1553 1553 1551 1550 1548
1492 1497 1493 1497 1489 1493 1489 1488 1483 1486 1491 1491 1491 1493 1495 1499 1501 1503 1506 1511 1514 1516 1520 1524 1527 1530 1532 1535 1538 1541 1543 1544 1546 1547 1549 1549 1550 1550 1551 1552 1551 1550 1550 1550 1550 1549 1549 1546 1545
1498 1500 1499 1491 1491 1497 1493 1488 1484 1484 1485 1487 1486 1488 1489 1491 1495 1500 1503 1505 1508 1509 1513 1516 1520 1524 1527 1530 1532 1536 1538 1539 1542 1543 1545 1547 1547 1547 1549 1548 1547 1547 1548 1548 1547 1547 1546 1546 1544
1500 1500 1496 1490 1493 1498 1490 1486 1481 1482 1481 1482 1482 1481 1484 1486 1489 1491 1496 1497 1499 1502 1504 1509 1513 1517 1520 1524 1528 1532 1534 1536 1537 1539 1540 1543 1544 1544 1545 1546 1546 1546 1546 1544 1544 1543 1545 1544 1541
1496 1498 1495 1496 1490 1490 1489 1487 1481 1476 1476 1476 1478 1478 1477 1479 1480 1483 1488 1491 1493 1494 1497 1500 1505 1510 1513 1518 1522 1523 1528 1528 1532 1534 1537 1539 1539 1541 1542 1543 1544 1544 1544 1543 1542 1541 1541 1543 1541
1497 1484 1490 1492 1495 1494 1480 1491 1467 1462 1465 1470 1471 1471 1473 1474 1475 1476 1479 1484 1486 1489 1491 1494 1498 1502 1505 1510 1514 1515 1520 1525 1529 1531 1532 1534 1536 1537 1539 1540 1541 1542 1542 1541 1541 1540 1540 1540 1541
1491 1489 1489 1488 1490 1487 1483 1488 1468 1461 1464 1467 1463 1463 1465 1467 1469 1469 1471 1475 1479 1483 1485 1486 1490 1494 1497 1501 1507 1509 1517 1524 1522 1525 1527 1530 1533 1534 1536 1537 1539 1541 1541 1540 1540 1539 1538 1540 1540
1489 1488 1483 1479 1482 1491 1476 1478 1467 1460 1457 1458 1456 1457 1460 1461 1464 1464 1466 1471 1473 1476 1479 1480 1482 1485 1489 1493 1498 1503 1509 1513 1514 1518 1523 1526 1529 1530 1532 1533 1536 1538 1539 1538 1538 1537 1536 1536 1536
1486 1489 1491 1484 1476 1476 1453 1460 1458 1451 1454 1456 1456 1455 1456 1458 1461 1462 1463 1465 1468 1471 1473 1475 1475 1477 1481 1485 1491 1496 1501 1504 1507 1512 1518 1521 1524 1526 1528 1530 1532 1535 1536 1537 1536 1536 1535 1534 1536
1499 1493 1493 1500 1485 1467 1448 1470 1460 1452 1457 1460 1466 1469 1468 1468 1465 1461 1462 1464 1465 1466 1468 1469 1468 1470 1475 1479 1484 1489 1493 1500 1504 1506 1511 1517 1519 1520 1524 1526 1530 1532 1534 1535 1535 1534 1533 1532 1533
1494 1496 1500 1497 1482 1477 1464 1451 1446 1450 1464 1473 1477 1477 1475 1472 1466 1464 1461 1460 1462 1459 1461 1463 1462 1467 1471 1474 1478 1482 1488 1494 1498 1502 1509 1513 1515 1515 1520 1523 1526 1530 1532 1532 1533 1533 1531 1531 1531
1515 1510 1503 1484 1497 1488 1464 1458 1452 1468 1476 1480 1482 1484 1482 1478 1471 1465 1460 1459 1460 1455 1459 1463 1462 1463 1465 1469 1473 1480 1484 1488 1492 1497 1502 1507 1511 1514 1517 1519 1520 1527 1530 1531 1531 1531 1530 1528 1530
1516 1506 1517 1509 1496 1491 1483 1465 1465 1479 1482 1485 1487 1487 1483 1479 1474 1469 1463 1459 1457 1458 1460 1463 1463 1462 1464 1468 1470 1476 1480 1485 1489 1493 1497 1504 1509 1512 1515 1519 1519 1522 1526 1529 1528 1527 1528 1528 1527
1526 1535 1534 1524 1502 1502 1506 1483 1472 1474 1483 1492 1493 1490 1486 1482 1476 1470 1467 1463 1460 1457 1459 1460 1461 1464 1464 1466 1469 1473 1478 1482 1485 1490 1496 1502 1508 1512 1515 1516 1520 1516 1523 1526 1524 1525 1526 1527 1525